,

(GMT )
Culdrose

Weather History for EGDR - May, 2013

Change the Weather History Date:

Friday, May 24, 2013

  Actual Average Record
Temperature  
Mean Temperature 47 °F -  
Max Temperature 52 °F 57 °F 68 °F (2001)
Min Temperature 42 °F 47 °F 40 °F (2016)
Degree Days  
Heating Degree Days 18    
Moisture  
Dew Point 44 °F    
Average Humidity 86    
Maximum Humidity 93    
Minimum Humidity 76    
Precipitation  
Precipitation 0.00 in - - ()
Sea Level Pressure  
Sea Level Pressure 30.04 in    
Wind  
Wind Speed 13 mph ()    
Max Wind Speed 25 mph    
Max Gust Speed 41 mph    
Visibility 7.7 miles    
Events Rain    
Averages and records for this station are not official NWS values.
T = Trace of Precipitation, MM = Missing Value Source: Averaged Metar Reports

Daily Weather History Graph

Daily Weather History Graph

Search for Another Location

Airport or City:

Trip Planner

Search our weather history database for the weather conditions in past years. The results will help you decide how hot, cold, wet, or windy it might be!

Date:

Astronomy

May. 24, 2013 Rise Set
Actual Time 5:23 AM BST 9:12 PM BST
Civil Twilight 4:42 AM BST 9:54 PM BST
Nautical Twilight 3:45 AM BST 10:51 PM BST
Astronomical Twilight 2:15 AM BST 12:24 AM BST
Moon 8:35 PM BST (5/24) 4:51 AM BST (5/24)
Length of Visible Light 17h 12m
Length of Day
15h 49m
Waxing Gibbous, 99% of the Moon is Illuminated
May 24
Waxing Gibbous
May 25
Full
May 31
Last Quarter
Jun 8
New
Jun 16
First Quarter

Hourly Weather History & Observations

Time (BST) Temp. Windchill Dew Point Humidity Pressure Visibility Wind Dir Wind Speed Gust Speed Precip Events Conditions
12:50 AM 43 °F - 41 °F 91% 30.10 in 16 mi NE 8.1 mph - - Rain Light Rain Showers
12:50 AM 42.8 °F 38.0 °F 41.0 °F 93% 30.06 in 6.2 mi NE 8.1 mph - N/A   Scattered Clouds
1:50 AM 44.6 °F 40.7 °F 42.8 °F 93% 30.06 in 6.2 mi NNW 6.9 mph - N/A   Mostly Cloudy
2:50 AM 44.6 °F 40.2 °F 42.8 °F 93% 30.04 in 6.2 mi NNW 8.1 mph - N/A   Mostly Cloudy
3:50 AM 44 °F - 42 °F 91% 30.06 in 7 mi North 12.7 mph - - Rain Light Rain Showers
3:50 AM 44.6 °F 38.4 °F 42.8 °F 93% 30.04 in 6.2 mi North 12.7 mph 26.5 mph N/A   Mostly Cloudy
4:50 AM 44.6 °F 38.1 °F 41.0 °F 87% 30.04 in 6.2 mi NNW 13.8 mph 25.3 mph N/A   Partly Cloudy
5:50 AM 46.4 °F 41.1 °F 41.0 °F 81% 30.01 in 6.2 mi NNW 11.5 mph - N/A   Scattered Clouds
6:50 AM 47 °F - 43 °F 79% 30.03 in 7 mi NNW 15.0 mph - -   Mostly Cloudy
6:50 AM 46.4 °F 40.1 °F 42.8 °F 87% 30.01 in 6.2 mi NNW 15.0 mph - N/A   Scattered Clouds
7:50 AM 46.4 °F 39.8 °F 42.8 °F 87% 30.01 in 6.2 mi NNW 16.1 mph 28.8 mph N/A   Mostly Cloudy
8:50 AM 46.4 °F 40.4 °F 42.8 °F 87% 30.01 in 6.2 mi North 13.8 mph 27.6 mph N/A   Mostly Cloudy
9:50 AM 47 °F - 43 °F 79% 30.03 in 9 mi North 17.3 mph - - Rain Light Rain Showers
9:50 AM 48.2 °F - 42.8 °F 82% 30.01 in 6.2 mi North 17.3 mph 28.8 mph N/A   Mostly Cloudy
10:50 AM 46.4 °F 38.7 °F 42.8 °F 87% 30.01 in 6.2 mi North 20.7 mph 35.7 mph N/A Rain Light Rain Showers
11:50 AM 48.2 °F - 42.8 °F 82% 30.01 in 6.2 mi North 20.7 mph 32.2 mph N/A   Mostly Cloudy
12:50 PM 49 °F - 44 °F 76% 30.03 in 16 mi North 18.4 mph - -   Partly Cloudy
12:50 PM 48.2 °F - 44.6 °F 87% 30.01 in 6.2 mi North 18.4 mph 32.2 mph N/A   Mostly Cloudy
1:50 PM 48.2 °F - 42.8 °F 82% 30.01 in 6.2 mi North 20.7 mph 38.0 mph N/A   Mostly Cloudy
2:50 PM 48.2 °F - 44.6 °F 87% 30.01 in 6.2 mi North 21.9 mph 36.8 mph N/A   Mostly Cloudy
3:50 PM 50 °F - 45 °F 76% 30.03 in 16 mi North 21.9 mph - -   Mostly Cloudy
3:50 PM 50.0 °F - 44.6 °F 82% 30.01 in 6.2 mi North 21.9 mph 40.3 mph N/A   Mostly Cloudy
4:50 PM 51.8 °F - 46.4 °F 82% 30.01 in 6.2 mi North 21.9 mph 38.0 mph N/A   Scattered Clouds
5:50 PM 50.0 °F - 46.4 °F 87% 30.01 in 6.2 mi North 25.3 mph 41.4 mph N/A   Scattered Clouds
6:50 PM 50 °F - 46 °F 79% 30.04 in 12 mi North 21.9 mph - -   Partly Cloudy
6:50 PM 50.0 °F - 46.4 °F 87% 30.04 in 6.2 mi North 21.9 mph 41.4 mph N/A   Partly Cloudy
7:50 PM 50.0 °F - 44.6 °F 82% 30.04 in 6.2 mi North 20.7 mph 38.0 mph N/A   Partly Cloudy
8:50 PM 48.2 °F - 44.6 °F 87% 30.06 in 6.2 mi North 18.4 mph 33.4 mph N/A   Partly Cloudy
9:50 PM 47 °F - 45 °F 88% 30.09 in 9 mi NNE 16.1 mph - -   Haze
9:50 PM 48.2 °F - 44.6 °F 87% 30.06 in - NNE 16.1 mph - N/A   Clear
10:50 PM 48.2 °F - 44.6 °F 87% 30.09 in - NNE 15.0 mph - N/A   Clear
11:50 PM 46.4 °F 41.1 °F 44.6 °F 93% 30.12 in - NNE 11.5 mph - N/A   Clear